Weather History for Tacoma, WA

Change the Weather History Date:

Friday, January 7, 2011

  Actual Average Record
Temperature  
Mean Temperature 42 °F -  
Max Temperature 48 °F 43 °F 60 °F (2002)
Min Temperature 34 °F 32 °F 9 °F (1979)
Degree Days  
Heating Degree Days 23    
Moisture  
Dew Point 43 °F    
Average Humidity 94    
Maximum Humidity 100    
Minimum Humidity 82    
Precipitation  
Precipitation 0.24 in - - ()
Sea Level Pressure  
Sea Level Pressure 30.07 in    
Wind  
Wind Speed 9 mph (SSW)    
Max Wind Speed 18 mph    
Max Gust Speed 25 mph    
Visibility 10 miles    
Events Rain    
Averages and records for this station are not official NWS values.
T = Trace of Precipitation, MM = Missing Value Source: NWS Daily Summary

Daily Weather History Graph

Daily Weather History Graph

Search for Another Location

Airport:

Trip Planner

Search our weather history database for the weather conditions in past years. The results will help you decide how hot, cold, wet, or windy it might be!

Date:

Astronomy

Jan. 07, 2011 Rise Set
Actual Time 7:55 AM PST 4:37 PM PST
Civil Twilight 7:20 AM PST 5:12 PM PST
Nautical Twilight 6:42 AM PST 5:50 PM PST
Astronomical Twilight 6:05 AM PST 6:27 PM PST
Moon 9:26 AM PST (1/7) 8:34 PM PST (1/7)
Length of Visible Light 9h 51m
Length of Day
8h 41m
Waxing Crescent, 11% of the Moon is Illuminated
Jan 7
Waxing Crescent
Jan 12
First Quarter
Jan 19
Full
Jan 26
Last Quarter
Feb 2
New

Hourly Weather History & Observations

Time (PST) Temp. Windchill Dew Point Humidity Pressure Visibility Wind Dir Wind Speed Gust Speed Precip Events Conditions
12:49 AM 44.6 °F 41.4 °F 44.6 °F 100% 30.15 in 10.0 mi SSE 5.8 mph - N/A Rain Light Rain
12:55 AM 45.5 °F 42.5 °F 45.1 °F 99% 30.15 in 10.0 mi South 5.8 mph - 0.02 in Rain Light Rain
1:45 AM 44.6 °F 41.4 °F 44.6 °F 100% 30.14 in 10.0 mi South 5.8 mph - N/A Rain Light Rain
1:46 AM 44.6 °F 41.4 °F 44.6 °F 100% 30.14 in 10.0 mi South 5.8 mph - N/A Rain Light Rain
1:55 AM 44.8 °F 41.6 °F 44.6 °F 99% 30.14 in 10.0 mi South 5.8 mph - 0.03 in Rain Light Rain
2:13 AM 44.6 °F 40.7 °F 44.6 °F 100% 30.14 in 9.0 mi South 6.9 mph - N/A Rain Light Rain
2:55 AM 45.0 °F 41.8 °F 44.6 °F 99% 30.13 in 10.0 mi South 5.8 mph - 0.04 in Rain Light Rain
3:36 AM 46.4 °F 42.9 °F 46.4 °F 100% 30.13 in 10.0 mi SSW 6.9 mph - N/A Rain Light Rain
3:55 AM 46.4 °F 42.4 °F 46.0 °F 99% 30.13 in 10.0 mi SSW 8.1 mph - 0.04 in Rain Light Rain
4:14 AM 46.4 °F 41.9 °F 46.4 °F 100% 30.12 in 10.0 mi SSW 9.2 mph - N/A Rain Light Rain
4:16 AM 46.4 °F 41.9 °F 46.4 °F 100% 30.12 in 10.0 mi SSW 9.2 mph - N/A Rain Light Rain
4:20 AM 46.4 °F 41.9 °F 46.4 °F 100% 30.12 in 9.0 mi SSW 9.2 mph - N/A Rain Light Rain
4:55 AM 46.2 °F 41.7 °F 45.7 °F 98% 30.11 in 10.0 mi South 9.2 mph - 0.04 in Rain Light Rain
5:35 AM 44.6 °F 40.2 °F 44.6 °F 100% 30.10 in 10.0 mi South 8.1 mph - N/A   Overcast
5:49 AM 46.4 °F 42.9 °F 46.4 °F 100% 30.09 in 10.0 mi South 6.9 mph - N/A   Overcast
5:52 AM 46.4 °F 42.9 °F 46.4 °F 100% 30.09 in 10.0 mi South 6.9 mph - N/A   Overcast
5:55 AM 45.9 °F 42.9 °F 45.5 °F 99% 30.09 in 10.0 mi South 5.8 mph - 0.01 in   Overcast
6:04 AM 46.4 °F 43.5 °F 44.6 °F 93% 30.09 in 10.0 mi South 5.8 mph - N/A   Overcast
6:05 AM 46.4 °F 43.5 °F 44.6 °F 93% 30.09 in 10.0 mi South 5.8 mph - N/A   Overcast
6:06 AM 46.4 °F 43.5 °F 44.6 °F 93% 30.09 in 10.0 mi South 5.8 mph - N/A   Mostly Cloudy
6:07 AM 46.4 °F 43.5 °F 44.6 °F 93% 30.09 in 10.0 mi South 5.8 mph - N/A   Overcast
6:09 AM 46.4 °F 42.9 °F 44.6 °F 93% 30.09 in 10.0 mi South 6.9 mph - N/A   Overcast
6:10 AM 46.4 °F 43.5 °F 44.6 °F 93% 30.09 in 10.0 mi South 5.8 mph - N/A   Overcast
6:55 AM 46.0 °F 40.6 °F 45.1 °F 97% 30.06 in 10.0 mi South 11.5 mph - N/A   Overcast
7:55 AM 46.0 °F 39.6 °F 44.4 °F 94% 30.05 in 10.0 mi South 15.0 mph - N/A   Overcast
8:55 AM 46.4 °F 40.4 °F 44.2 °F 92% 30.04 in 10.0 mi South 13.8 mph - N/A   Overcast
9:55 AM 46.8 °F - 43.7 °F 89% 30.03 in 10.0 mi South 8.1 mph - N/A   Overcast
10:14 AM 48.2 °F - 42.8 °F 82% 30.04 in 10.0 mi SW 8.1 mph - N/A   Overcast
10:22 AM 48.2 °F - 42.8 °F 82% 30.05 in 10.0 mi SW 10.4 mph - N/A Rain Light Rain
10:29 AM 48.2 °F - 44.6 °F 87% 30.04 in 7.0 mi SSW 9.2 mph - N/A Rain Light Rain
10:30 AM 48.2 °F - 44.6 °F 87% 30.04 in 6.0 mi SSW 8.1 mph - N/A Rain Light Rain
10:42 AM 46.4 °F 42.4 °F 44.6 °F 93% 30.04 in 8.0 mi South 8.1 mph 20.7 mph N/A   Light Drizzle
10:46 AM 46.4 °F 41.9 °F 44.6 °F 93% 30.04 in 9.0 mi South 9.2 mph 20.7 mph N/A Rain Light Rain
10:55 AM 46.6 °F - 44.8 °F 93% 30.04 in 10.0 mi South 9.2 mph - 0.01 in Rain Light Rain
11:00 AM 46.4 °F 41.5 °F 44.6 °F 93% 30.04 in 10.0 mi South 10.4 mph - N/A   Overcast
11:43 AM 46.4 °F 40.7 °F 44.6 °F 93% 30.03 in 10.0 mi SSW 12.7 mph - N/A Rain Light Rain
11:54 AM 46.4 °F 40.4 °F 44.6 °F 93% 30.02 in 10.0 mi SSW 13.8 mph - N/A Rain Light Rain
11:55 AM 46.9 °F - 44.1 °F 90% 30.02 in 10.0 mi SSW 13.8 mph - 0.00 in Rain Light Rain
12:49 PM 46.4 °F 40.1 °F 44.6 °F 93% 30.01 in 10.0 mi SSW 15.0 mph - N/A Rain Light Rain
12:55 PM 46.8 °F - 44.2 °F 91% 30.01 in 10.0 mi SSW 11.5 mph - 0.01 in Rain Light Rain
1:55 PM 45.9 °F 38.8 °F 43.7 °F 92% 30.01 in 10.0 mi SSW 17.3 mph - 0.02 in Rain Light Rain
2:17 PM 46.4 °F 40.4 °F 42.8 °F 87% 30.02 in 10.0 mi SSW 13.8 mph - N/A Rain Light Rain
2:19 PM 46.4 °F 40.4 °F 42.8 °F 87% 30.02 in 10.0 mi SSW 13.8 mph - N/A Rain Light Rain
2:29 PM 44.6 °F 38.1 °F 44.6 °F 100% 30.03 in 10.0 mi SSW 13.8 mph - N/A Rain Light Rain
2:41 PM 44.6 °F 38.8 °F 44.6 °F 100% 30.03 in 10.0 mi SSW 11.5 mph - N/A Rain Light Rain
2:43 PM 44.6 °F 37.8 °F 44.6 °F 100% 30.03 in 10.0 mi SSW 15.0 mph - N/A Rain Light Rain
2:50 PM 44.6 °F 38.1 °F 42.8 °F 93% 30.03 in 10.0 mi SSW 13.8 mph - N/A   Overcast
2:51 PM 44.6 °F 38.4 °F 42.8 °F 93% 30.03 in 10.0 mi SSW 12.7 mph - N/A   Overcast
2:55 PM 45.3 °F 39.3 °F 43.5 °F 93% 30.03 in 10.0 mi SSW 12.7 mph - 0.02 in   Overcast
3:12 PM 44.6 °F 37.8 °F 42.8 °F 93% 30.04 in 10.0 mi SSW 15.0 mph - N/A   Overcast
3:53 PM 44.6 °F 37.4 °F 42.8 °F 93% 30.04 in 10.0 mi SW 16.1 mph - N/A   Scattered Clouds
3:55 PM 44.2 °F 36.4 °F 42.4 °F 93% 30.04 in 10.0 mi SSW 18.4 mph 23.0 mph N/A   Scattered Clouds
3:57 PM 44.6 °F 36.9 °F 42.8 °F 93% 30.04 in 10.0 mi SSW 18.4 mph 23.0 mph N/A   Mostly Cloudy
3:59 PM 44.6 °F 37.2 °F 42.8 °F 93% 30.03 in 10.0 mi SSW 17.3 mph 25.3 mph N/A   Mostly Cloudy
4:01 PM 44.6 °F 37.4 °F 42.8 °F 93% 30.04 in 10.0 mi SSW 16.1 mph 25.3 mph N/A   Scattered Clouds
4:16 PM 44.6 °F 38.1 °F 41.0 °F 87% 30.04 in 10.0 mi SW 13.8 mph - N/A   Mostly Cloudy
4:23 PM 42.8 °F 35.1 °F 41.0 °F 93% 30.04 in 10.0 mi SSW 16.1 mph - N/A   Scattered Clouds
4:55 PM 43.0 °F 36.4 °F 40.3 °F 90% 30.06 in 10.0 mi SW 12.7 mph - N/A   Clear
5:55 PM 41.0 °F 33.9 °F 38.1 °F 89% 30.06 in 10.0 mi SSW 12.7 mph - N/A   Scattered Clouds
6:55 PM 39.4 °F 32.7 °F 36.1 °F 88% 30.07 in 10.0 mi SSW 10.4 mph - N/A   Clear
7:55 PM 39.4 °F 31.8 °F 35.4 °F 86% 30.07 in 10.0 mi SSW 12.7 mph 19.6 mph N/A   Clear
8:55 PM 38.5 °F 31.6 °F 34.9 °F 87% 30.08 in 10.0 mi SSW 10.4 mph - N/A   Clear
9:55 PM 37.2 °F 31.2 °F 34.0 °F 88% 30.09 in 10.0 mi SW 8.1 mph - N/A   Clear
10:55 PM 36.1 °F 29.9 °F 33.1 °F 89% 30.10 in 10.0 mi SSW 8.1 mph - N/A   Clear
11:55 PM 34.2 °F 30.0 °F 32.5 °F 94% 30.11 in 10.0 mi SSE 4.6 mph - N/A   Clear